Miscellaneous Local Product
Issued by NWS Hastings, NE

Home | Current Version | Previous Version | Text Only | Print | Product List | Glossary Off
Versions: 1 2 3 4 5 6 7 8 9 10 11 12 13 14 15 16 17 18 19 20 21 22 23 24 25 26 27 28 29 30 31 32 33 34 35 36 37 38 39 40 41 42 43 44 45 46 47 48 49 50

000
AXUS43 KGID 201002
MISGRI

GID CWA HOURLY WEATHER ROUNDUP
NATIONAL WEATHER SERVICE HASTINGS NE
400 AM CST MON NOV 20 2017

NOTE: "FAIR" INDICATES FEW OR NO CLOUDS BELOW 12,000 FEET WITH NO
SIGNIFICANT WEATHER AND/OR OBSTRUCTIONS TO VISIBILITY.

...SOUTH CENTRAL NEBRASKA...

CITY           SKY/WX    TMP DP  RH WIND       PRES   REMARKS
GRAND ISLAND   CLOUDY    36  27  69 SW12      29.78F WCI  28
KEARNEY        CLOUDY    34  25  69 SW8       29.79F WCI  27
HASTINGS       CLOUDY    35  24  64 SW8       29.80F WCI  29
ORD            CLOUDY    34  23  64 SW6       29.71F WCI  29
YORK           CLOUDY    30  25  80 CALM      29.80S
AURORA         CLOUDY    32  25  74 SW12      29.79S WCI  23
LEXINGTON      CLOUDY    31  21  66 W7        29.78F WCI  24
HOLDREGE       CLOUDY    37  24  60 SW9       29.79F WCI  30
HEBRON         CLOUDY    41  23  48 SW13G21   29.83F

...NEBRASKA PANHANDLE...

CITY           SKY/WX    TMP DP  RH WIND       PRES   REMARKS
CHADRON        CLOUDY    29  18  63 SW7       29.72F WCI  22
ALLIANCE       CLOUDY    38  13  35 W15       29.74F WCI  29
SCOTTSBLUFF    CLOUDY    44   9  23 W9        29.79R
SIDNEY         CLOUDY    26  14  60 W10       29.81F WCI  16

...WESTERN AND NORTH CENTRAL NEBRASKA...

CITY           SKY/WX    TMP DP  RH WIND       PRES   REMARKS
VALENTINE      CLOUDY    34  18  52 W12       29.67F WCI  25
AINSWORTH      CLOUDY    35  18  50 SW8       29.68F WCI  29
ONEILL         CLEAR     32  23  69 SW8       29.68F WCI  25
BROKEN BOW     CLOUDY    32  22  66 W10       29.73F WCI  24
IMPERIAL       CLOUDY    25  16  68 W7        29.81F WCI  17
NORTH PLATTE   CLOUDY    23  18  81 NW3       29.79F
MCCOOK         CLOUDY    30  22  72 W12       29.81F WCI  20

...EASTERN NEBRASKA...

CITY           SKY/WX    TMP DP  RH WIND       PRES   REMARKS
NORFOLK        CLEAR     32  25  75 SW8       29.73F WCI  25
SO SIOUX CITY  CLEAR     27  23  85 E8        29.74F WCI  19
TEKAMAH        CLEAR     35  25  66 S12       29.78F WCI  27
COLUMBUS       CLOUDY    29  24  82 SW5       29.78F WCI  24
ALBION         CLOUDY    32  25  75 SE6       29.74F WCI  26
OMAHA EPPLEY   CLOUDY    34  25  69 SE13      29.82F WCI  25
OFFUTT AFB     CLOUDY    31  25  80 E5        29.82F WCI  26
MILLARD        CLOUDY    36  27  69 SE6       29.81F WCI  31
LINCOLN        CLOUDY    36  24  62 S3        29.83F
NEBRASKA CITY  CLOUDY    37  28  68 S10       29.84F WCI  30
BEATRICE       CLOUDY    40  25  55 S9        29.84F WCI  34
FALLS CITY     CLOUDY    41  26  55 S8        29.89F

...NORTHERN KANSAS...

CITY           SKY/WX    TMP DP  RH WIND       PRES   REMARKS
GOODLAND       CLOUDY    32  14  47 W8        29.84F WCI  25
HILL CITY      CLOUDY    33  22  63 SW6       29.84F WCI  28
NORTON         SUNNY     28  18  64 W7        29.82F WCI  21
PHILLIPSBURG   CLEAR     28  21  74 W3        29.84F
SMITH CENTER   CLEAR     28  21  74 S5        29.85F WCI  23
HAYS           CLOUDY    33  20  58 SW5       29.89F WCI  29
RUSSELL        CLOUDY    37  21  52 S17       29.87F WCI  27
CONCORDIA      CLOUDY    42  21  43 SW14      29.86F
SALINA         CLEAR     45  23  42 S17       29.92S
TOPEKA         CLOUDY    45  27  49 S14G21    29.95F



USA.gov is the U.S. government's official web portal to all federal, state and local government web resources and services.